Thousand Palms, CA (92276)

2:14 AM PDT on September 25, 2016 (GMT -0700)
DesertWeather com | | Change Station
Active Advisory: Fire Weather Warning

Elev 275 ft 33.82 °N, 116.40 °W | Updated 9 seconds ago

Clear
Clear
74.2 °F
Feels Like 77 °F
N
2.6
Wind Variable Wind from North
Gusts 3.5 mph

Today
High -- | Low -- °F
--% Chance of Precip.
Yesterday
High -- | Low -- °F
Precip. -- in
Pressure 29.98 in
Visibility 10.0 miles
Clouds Clear
Heat Index 77 °F
Dew Point 39 °F
Humidity 28%
Rainfall 0.00 in
Snow Depth Not available.
6:36 AM 6:37 PM
Waning Crescent, 29% visible
METAR KPSP 250853Z 31004KT 10SM CLR 25/04 A2999 RMK AO2 SLP152 T02500039 55000
Pressure 29.98 in
Visibility 10.0 miles
Clouds Clear
Heat Index 77 °F
Dew Point 39 °F
Humidity 28%
Rainfall 0.00 in
Snow Depth Not available.
6:36 AM 6:37 PM
Waning Crescent, 29% visible
METAR KPSP 250853Z 31004KT 10SM CLR 25/04 A2999 RMK AO2 SLP152 T02500039 55000

10-Day Weather Forecast

Almanac

Astronomy

Sep. 25, 2016 Rise Set
Actual Time
Civil Twilight
Nautical Twilight
Astronomical Twilight
Moon
Length of Visible Light
Length of Day
Tomorrow will be .
, % of the Moon is Illuminated

Today's Extremes

State Highs State Lows

Community

WunderPhotos

Upload Photos

1,941,554 photos uploaded!

WunderBlog® & News

Nearby

Air Quality

  Air Quality AQ Index Pollutant
Not available.

Snow Depth

Station Depth Elevation

Earthquake Activity

City Distance Mag. Time & Date
Minimum magnitude displayed is 2.5.

Coastal Water Temperatures

Place Temperature

Stations

Nearby Weather Stations

Station Location Temp. Windchill Dew Point Humidity Wind Precip. Elev Updated Type
                   

Watches & Warnings

Fire Weather Warning
Issued: 10:03 PM PDT Sep. 24, 2016 – National Weather Service

... Red flag warning remains in effect until 3 PM PDT Monday for
strong winds and low humidity for the Riverside and San Diego
County mountains...

* winds... areas of northeast winds 15 to 25 mph with gusts to 35
mph... becoming 25 to 35 mph with gusts to 50 to 60 mph along
wind-prone coastal slopes Sunday morning into Monday.

* Humidity... lowest of 6 to 10 percent Sunday with poor overnight
recovery... becoming 10 to 20 percent on Monday.

* Outlook... gradual cooling with higher humidity and weaker
winds Tuesday into Wednesday.

* Impacts... any fires that start may exhibit extreme fire
behavior and spread rapidly. Outdoor burning is not
recommended.

Precautionary/preparedness actions...

A red flag warning means that critical fire weather conditions
are either occurring now... or will shortly. A combination of
strong winds... low relative humidity... and heat will contribute
to extreme fire behavior.